Lid_Strength_Index
9 12 14 12 11 12 12 14 16 15 12 14 14 14 11 10 10 11 11 11 10 10 8 7 6 6 5 3 3 4 4 3 3 4 4 4 3 2 2 2 1 2 2 2
11 13 10 9 10 11 12 13 15 13 12 13 13 14 13 11 11 10 9 9 10 10 9 8 7 7 6 5 3 3 4 4 4 3 3 4 4 3 3 2 2 2 2 2
12 11 8 10 11 13 12 13 14 14 11 12 13 14 13 11 11 10 10 9 9 9 8 9 8 8 8 7 5 3 3 3 3 3 4 4 4 5 4 4 3 2 2 2
11 8 10 11 12 11 15 10 11 13 14 17 13 19 16 13 12 11 10 9 8 7 7 6 7 8 8 7 7 4 2 3 3 3 4 4 4 5 4 4 3 3 3 2
12 11 11 12 12 10 12 10 11 12 15 16 16 17 17 14 14 13 11 10 9 8 7 7 7 7 7 5 5 5 4 2 2 3 3 4 4 4 4 4 4 4 3 3
10 8 9 10 9 9 9 11 12 12 14 18 15 16 19 15 13 12 11 10 10 9 9 8 7 6 7 8 8 7 6 5 2 3 3 4 4 4 4 4 4 4 4 3
12 11 10 9 12 10 10 13 19 19 20 19 17 16 16 14 13 12 11 11 11 10 9 8 8 8 9 9 8 8 8 8 7 5 4 4 3 4 4 3 3 3 3 3
16 17 12 10 11 13 12 13 18 22 21 20 17 18 16 13 11 11 11 11 10 10 10 9 8 9 9 9 9 9 9 9 9 9 9 8 8 8 7 7 6 5 3 2
15 15 12 10 10 10 13 15 12 18 24 21 19 18 15 13 13 13 12 12 11 10 10 10 10 10 10 10 10 10 9 9 9 9 9 9 9 9 8 8 8 7 7 6
12 16 12 11 9 9 11 9 16 17 23 25 20 20 19 16 14 13 13 11 10 11 10 10 10 10 10 10 10 9 9 9 9 9 9 9 9 9 8 8 8 8 8 7
11 13 15 11 13 13 12 13 13 13 17 20 22 20 16 14 13 12 12 11 10 10 10 10 10 10 10 10 10 10 9 9 9 9 9 9 10 9 9 9 9 9 8 8
10 12 16 14 13 11 10 12 12 16 18 16 18 18 15 14 13 13 12 11 11 10 10 11 11 11 11 10 10 10 9 9 9 10 10 10 10 10 10 10 9 9 9 8
9 14 18 17 13 12 13 11 11 11 14 16 19 17 13 13 13 13 12 12 10 11 11 12 12 11 11 11 10 10 10 9 10 11 11 11 11 11 11 10 9 9 9 9
8 12 15 17 15 13 15 13 12 12 16 16 15 14 14 14 13 12 12 11 11 11 11 12 12 11 11 11 11 10 10 10 9 11 12 12 12 11 10 10 9 9 9 9
10 15 14 13 12 12 13 13 13 14 13 16 13 13 11 10 12 12 11 12 10 10 10 11 11 11 11 11 11 10 10 10 9 11 11 11 11 10 10 10 9 9 10 10
9 14 13 15 12 13 14 12 12 12 12 12 12 13 10 9 8 10 10 10 11 10 9 9 10 10 11 11 10 10 10 10 9 10 11 10 10 10 10 10 10 11 11 11
12 13 15 17 13 14 17 14 13 12 11 11 15 11 8 8 8 8 10 10 9 9 8 8 8 9 9 10 9 10 9 10 9 10 10 11 11 12 12 12 12 12 12 11
12 13 14 16 16 21 14 10 10 11 10 10 10 9 8 8 7 8 8 8 8 8 8 7 7 8 9 10 10 9 9 10 10 10 11 11 12 12 12 13 13 12 12 12
9 12 15 17 17 15 15 14 12 12 12 9 9 8 8 7 9 8 8 7 7 7 7 7 7 9 9 10 9 10 10 11 11 11 12 12 12 13 13 13 12 12 12 12
10 10 14 16 19 20 13 10 11 10 15 9 8 8 8 7 12 9 6 7 7 8 9 10 10 10 11 12 11 11 12 12 12 12 12 12 12 13 13 12 12 12 13 11
14 14 16 16 17 15 12 13 10 16 14 8 8 8 8 9 7 8 11 12 12 13 13 12 12 13 13 13 12 12 12 12 12 13 13 13 13 13 12 12 12 12 12 12
15 15 16 15 17 19 13 13 13 12 13 13 11 11 10 12 12 13 13 14 14 15 15 15 15 15 14 14 14 14 14 14 14 13 13 13 14 13 12 13 12 12 13 13
15 12 14 14 14 12 13 12 13 12 13 13 13 13 12 14 16 16 16 16 16 16 16 16 16 16 15 15 15 15 15 15 15 16 16 16 15 14 13 13 13 13 13 12
12 11 12 12 11 12 14 15 15 14 15 15 15 15 14 16 16 16 16 17 17 17 18 18 18 18 18 18 17 17 17 18 20 20 19 18 17 17 16 15 14 14 13 13
11 12 13 13 16 15 16 15 16 16 16 16 17 16 16 17 18 17 18 19 19 19 20 19 20 20 21 20 21 21 20 20 21 21 20 20 19 19 18 17 16 15 14 13
12 12 12 12 13 13 16 16 16 17 17 17 17 19 19 19 20 20 20 20 21 22 22 22 23 23 24 24 23 23 23 22 23 23 22 21 21 20 20 20 19 16 15 14